Weather History for Culdrose, United Kingdom

Change the Weather History Date:

Tuesday, January 8, 2013

  Actual Average Record
Temperature  
Mean Temperature 50 °F -  
Max Temperature 51 °F 46 °F 53 °F (1998)
Min Temperature 48 °F 39 °F 26 °F (2009)
Degree Days  
Heating Degree Days 16    
Moisture  
Dew Point 50 °F    
Average Humidity 97    
Maximum Humidity 100    
Minimum Humidity 92    
Precipitation  
Precipitation 0.04 in - - ()
Sea Level Pressure  
Sea Level Pressure 30.20 in    
Wind  
Wind Speed 11 mph ()    
Max Wind Speed 16 mph    
Max Gust Speed 29 mph    
Visibility 3.2 miles    
Events Rain    
Averages and records for this station are not official NWS values.
T = Trace of Precipitation, MM = Missing Value Source: Averaged Metar Reports

Daily Weather History Graph

Daily Weather History Graph

Search for Another Location

Airport:

Trip Planner

Search our weather history database for the weather conditions in past years. The results will help you decide how hot, cold, wet, or windy it might be!

Date:

Astronomy

Jan. 08, 2013 Rise Set
Actual Time 8:18 AM GMT 4:37 PM GMT
Civil Twilight 7:40 AM GMT 5:15 PM GMT
Nautical Twilight 6:59 AM GMT 5:56 PM GMT
Astronomical Twilight 6:20 AM GMT 6:35 PM GMT
Moon 4:32 AM GMT (1/8) 1:29 PM GMT (1/8)
Length of Visible Light 9h 35m
Length of Day
8h 19m
Waning Crescent, 15% of the Moon is Illuminated
Jan 8
Waning Crescent
Jan 11
New
Jan 18
First Quarter
Jan 27
Full
Feb 3
Last Quarter

Hourly Weather History & Observations

Time (GMT) Temp. Dew Point Humidity Pressure Visibility Wind Dir Wind Speed Gust Speed Precip Events Conditions
12:50 AM 50.0 °F 48.2 °F 94% 30.21 in 6.2 mi SSW 11.5 mph - N/A   Haze
1:50 AM 50.0 °F 48.2 °F 94% 30.18 in 6.2 mi SSW 13.8 mph - N/A   Haze
2:50 AM 51 °F 49 °F 92% 30.22 in 6 mi SSW 11.5 mph - -   Haze
2:50 AM 50.0 °F 50.0 °F 100% 30.21 in 6.2 mi SSW 11.5 mph - N/A   Haze
3:50 AM 50.0 °F 50.0 °F 100% 30.18 in 6.2 mi SSW 16.1 mph - N/A   Haze
4:50 AM 51.8 °F 50.0 °F 94% 30.18 in 3.1 mi SSW 12.7 mph - N/A   Light Drizzle
5:50 AM 51 °F 50 °F 95% 30.20 in 3 mi SSW 12.7 mph - - Rain Light Drizzle
5:50 AM 51.8 °F 50.0 °F 94% 30.18 in 3.1 mi SSW 12.7 mph - N/A   Mostly Cloudy
6:50 AM 51.8 °F 50.0 °F 94% 30.18 in 4.3 mi SSW 13.8 mph 25.3 mph N/A   Overcast
7:50 AM 51.8 °F 50.0 °F 94% 30.18 in 3.7 mi SSW 15.0 mph 26.5 mph N/A   Light Drizzle
8:50 AM 52 °F 51 °F 94% 30.21 in 2 mi SSW 13.8 mph - - Rain Light Drizzle
8:50 AM 51.8 °F 50.0 °F 94% 30.18 in 2.5 mi SSW 13.8 mph - N/A   Light Drizzle
9:12 AM 51.8 °F 51.8 °F 100% 30.18 in 1.2 mi SSW 16.1 mph - N/A   Light Drizzle
9:35 AM 51.8 °F 51.8 °F 100% 30.21 in 0.6 mi SSW 15.0 mph 26.5 mph N/A   Light Drizzle
9:50 AM 51.8 °F 51.8 °F 100% 30.21 in 0.2 mi SSW 15.0 mph 26.5 mph N/A   Light Drizzle
10:50 AM 51.8 °F 51.8 °F 100% 30.21 in 0.3 mi SSW 13.8 mph 27.6 mph N/A   Drizzle
11:50 AM 52 °F 51 °F 97% 30.22 in 0 mi SSW 15.0 mph - - Rain Light Drizzle
11:50 AM 51.8 °F 51.8 °F 100% 30.21 in 0.2 mi SSW 15.0 mph 28.8 mph N/A   Light Drizzle
12:50 PM 51.8 °F 51.8 °F 100% 30.18 in 0.1 mi SW 12.7 mph - N/A   Light Drizzle
1:50 PM 51.8 °F 51.8 °F 100% 30.18 in 0.0 mi SW 11.5 mph - N/A   Light Drizzle
2:50 PM 52 °F 51 °F 97% 30.19 in 0 mi WSW 6.9 mph - - Rain Light Drizzle
2:50 PM 51.8 °F 51.8 °F 100% 30.18 in 0.0 mi WSW 6.9 mph - N/A   Light Drizzle
3:50 PM 51.8 °F 51.8 °F 100% 30.18 in 0.0 mi WSW 4.6 mph - N/A   Light Drizzle
4:50 PM 51.8 °F 50.0 °F 94% 30.18 in 0.0 mi WSW 3.5 mph - N/A   Light Drizzle
5:50 PM 51 °F 51 °F 99% 30.21 in 0 mi West 3.5 mph - - Rain Light Drizzle
5:50 PM 51.8 °F 50.0 °F 94% 30.18 in 0.0 mi West 3.5 mph - N/A   Light Drizzle
6:50 PM 50.0 °F 50.0 °F 100% 30.18 in 2.5 mi North 5.8 mph - N/A   Light Drizzle
7:50 PM 50.0 °F 50.0 °F 100% 30.21 in 5.0 mi North 6.9 mph - N/A   Overcast
8:50 PM 49 °F 49 °F 99% 30.23 in 9 mi North 9.2 mph - - Rain Light Drizzle
8:50 PM 50.0 °F 48.2 °F 94% 30.21 in 6.2 mi North 9.2 mph - N/A   Light Drizzle
9:50 PM 50.0 °F 48.2 °F 94% 30.21 in 6.2 mi NE 9.2 mph - N/A   Overcast
10:50 PM 48.2 °F 48.2 °F 100% 30.21 in 6.2 mi North 9.2 mph - N/A   Overcast
11:50 PM 48 °F 48 °F 99% 30.22 in 12 mi NNE 11.5 mph - -   Partly Cloudy
11:50 PM 48.2 °F 48.2 °F 100% 30.21 in 6.2 mi NNE 11.5 mph - N/A   Overcast